When you browse on this site, cookies collect data to enhance your experience and personalize the content and advertising you see.
Visit our Privacy Policy to learn more. By continuing to use the site, you agree to this use of cookies and data.
  • In Portugal
  • List of Countries
  • For 7 days
  • Water Temperature
  • Weather Map
  • Weather Widgets
  • user-avatar
    Login

    Hourly Weather Borovec

    Today, 1 April, Wednesday

    Time Temperature Precipitation Wind Pressure Humidity
    00:00 -1°C° 0.9 mm 2 mps 711 mmHg 95%
    01:00 -1°C° 0.9 mm 2 mps 711 mmHg 95%
    02:00 -1°C° 0 mm 2 mps 711 mmHg 95%
    03:00 -2°C° 0.5 mm 2 mps 711 mmHg 95%
    04:00 -2°C° 0.5 mm 3 mps 710 mmHg 95%
    05:00 -2°C° 0.5 mm 3 mps 710 mmHg 95%
    06:00 -2°C° 0.4 mm 3 mps 710 mmHg 94%
    07:00 -2°C° 0.4 mm 3 mps 710 mmHg 93%
    08:00 -3°C° 0 mm 4 mps 710 mmHg 93%
    09:00 -2°C° 0.2 mm 4 mps 710 mmHg 92%
    10:00 -2°C° 0.2 mm 4 mps 710 mmHg 91%
    11:00 -1°C° 0.2 mm 4 mps 710 mmHg 90%
    12:00 -1°C° 0.2 mm 4 mps 710 mmHg 90%
    13:00 0°C° 0.2 mm 4 mps 710 mmHg 90%
    14:00 0°C° 0.2 mm 4 mps 710 mmHg 91%
    15:00 0°C° 0.2 mm 4 mps 709 mmHg 91%
    16:00 0°C° 0.2 mm 4 mps 709 mmHg 92%
    17:00 -1°C° 0.2 mm 4 mps 708 mmHg 92%
    18:00 -1°C° 0.3 mm 4 mps 708 mmHg 93%
    19:00 0°C° 0.3 mm 3 mps 708 mmHg 94%
    20:00 0°C° 0.3 mm 3 mps 709 mmHg 95%
    21:00 0°C° 0.4 mm 3 mps 709 mmHg 95%
    22:00 -1°C° 0.4 mm 2 mps 709 mmHg 96%
    23:00 -1°C° 0.4 mm 2 mps 709 mmHg 96%

    Tomorrow, 2 April, Thursday

    Time Temperature Precipitation Wind Pressure Humidity
    00:00 -1°C° 0.6 mm 2 mps 709 mmHg 97%
    01:00 -1°C° 0.6 mm 2 mps 709 mmHg 97%
    02:00 -1°C° 0.6 mm 2 mps 709 mmHg 97%
    03:00 -1°C° 0.3 mm 2 mps 709 mmHg 97%
    04:00 -1°C° 0.3 mm 2 mps 709 mmHg 97%
    05:00 +1°C° 0.3 mm 1 mps 709 mmHg 97%
    06:00 +1°C° 0.1 mm 1 mps 709 mmHg 96%
    07:00 +1°C° 0.1 mm 1 mps 709 mmHg 95%
    08:00 +2°C° 0.1 mm 1 mps 709 mmHg 94%
    09:00 +1°C° 0 mm 2 mps 709 mmHg 93%
    10:00 +2°C° 0 mm 2 mps 709 mmHg 91%
    11:00 +3°C° 0 mm 2 mps 709 mmHg 90%
    12:00 +3°C° 0 mm 2 mps 709 mmHg 89%
    13:00 +4°C° 0 mm 2 mps 709 mmHg 88%
    14:00 +4°C° 0 mm 2 mps 709 mmHg 86%
    15:00 +4°C° 0 mm 2 mps 709 mmHg 86%
    16:00 +5°C° 0 mm 1 mps 708 mmHg 85%
    17:00 +5°C° 0 mm 1 mps 708 mmHg 84%
    18:00 +4°C° 0 mm 1 mps 708 mmHg 86%
    19:00 +3°C° 0 mm 1 mps 708 mmHg 89%
    20:00 +2°C° 0 mm 1 mps 708 mmHg 91%
    21:00 +2°C° 0 mm 1 mps 708 mmHg 91%
    22:00 +1°C° 0 mm 0 mps 708 mmHg 91%
    23:00 0°C° 0 mm 0 mps 708 mmHg 91%

    Day after tomorrow, 3 April, Friday

    Time Temperature Precipitation Wind Pressure Humidity
    00:00 0°C° 0 mm 0 mps 708 mmHg 91%
    01:00 0°C° 0 mm 0 mps 708 mmHg 91%
    02:00 +1°C° 0 mm 1 mps 708 mmHg 92%
    03:00 +1°C° 0 mm 1 mps 708 mmHg 92%
    04:00 +1°C° 0 mm 1 mps 708 mmHg 92%
    05:00 +1°C° 0 mm 1 mps 707 mmHg 93%
    06:00 +2°C° 0 mm 1 mps 708 mmHg 91%
    07:00 +3°C° 0 mm 1 mps 708 mmHg 89%
    08:00 +4°C° 0 mm 1 mps 708 mmHg 88%
    09:00 +5°C° 0 mm 1 mps 709 mmHg 84%
    10:00 +7°C° 0 mm 1 mps 709 mmHg 81%
    11:00 +8°C° 0 mm 1 mps 709 mmHg 78%
    12:00 +8°C° 0 mm 2 mps 709 mmHg 76%
    13:00 +9°C° 0 mm 2 mps 709 mmHg 74%
    14:00 +10°C° 0 mm 2 mps 709 mmHg 71%
    15:00 +10°C° 0 mm 2 mps 709 mmHg 73%
    16:00 +9°C° 0 mm 2 mps 708 mmHg 74%
    17:00 +10°C° 0 mm 1 mps 708 mmHg 75%
    18:00 +9°C° 0 mm 1 mps 708 mmHg 79%
    19:00 +8°C° 0 mm 1 mps 708 mmHg 82%
    20:00 +5°C° 0 mm 0 mps 709 mmHg 86%
    21:00 +5°C° 0 mm 0 mps 709 mmHg 86%
    22:00 +5°C° 0 mm 0 mps 709 mmHg 86%
    23:00 +5°C° 0 mm 0 mps 709 mmHg 86%

    4 April, Saturday

    Time Temperature Precipitation Wind Pressure Humidity
    00:00 +5°C° 0 mm 0 mps 709 mmHg 87%
    01:00 +5°C° 0 mm 0 mps 709 mmHg 87%
    02:00 +5°C° 0 mm 0 mps 709 mmHg 88%
    03:00 +5°C° 0 mm 0 mps 710 mmHg 88%
    04:00 +5°C° 0 mm 0 mps 710 mmHg 89%
    05:00 +5°C° 0 mm 0 mps 710 mmHg 89%
    06:00 +5°C° 0 mm 0 mps 710 mmHg 88%
    07:00 +5°C° 0 mm 0 mps 710 mmHg 88%
    08:00 +6°C° 0 mm 0 mps 711 mmHg 87%
    09:00 +8°C° 0 mm 1 mps 711 mmHg 85%
    10:00 +8°C° 0 mm 1 mps 711 mmHg 82%
    11:00 +9°C° 0 mm 1 mps 711 mmHg 80%
    12:00 +8°C° 0.1 mm 2 mps 711 mmHg 80%
    13:00 +9°C° 0.1 mm 2 mps 711 mmHg 79%
    14:00 +9°C° 0.1 mm 2 mps 711 mmHg 78%
    15:00 +9°C° 0.1 mm 2 mps 711 mmHg 79%
    16:00 +9°C° 0.1 mm 3 mps 711 mmHg 79%
    17:00 +9°C° 0.1 mm 3 mps 711 mmHg 79%
    18:00 +8°C° 0 mm 2 mps 711 mmHg 83%
    19:00 +7°C° 0 mm 2 mps 711 mmHg 87%
    20:00 +6°C° 0 mm 2 mps 711 mmHg 90%
    21:00 +6°C° 0 mm 2 mps 712 mmHg 91%
    22:00 +6°C° 0 mm 2 mps 712 mmHg 91%
    23:00 +6°C° 0 mm 2 mps 712 mmHg 92%

    5 April, Sunday

    Time Temperature Precipitation Wind Pressure Humidity
    00:00 +6°C° 0.1 mm 2 mps 712 mmHg 92%
    01:00 +6°C° 0.1 mm 2 mps 712 mmHg 92%
    02:00 +6°C° 0.1 mm 2 mps 712 mmHg 92%
    03:00 +5°C° 0 mm 2 mps 712 mmHg 92%
    04:00 +5°C° 0 mm 2 mps 713 mmHg 93%
    05:00 +5°C° 0 mm 2 mps 713 mmHg 93%
    06:00 +5°C° 0 mm 3 mps 713 mmHg 91%
    07:00 +5°C° 0 mm 4 mps 713 mmHg 88%
    08:00 +6°C° 0 mm 5 mps 714 mmHg 85%
    09:00 +7°C° 0 mm 6 mps 714 mmHg 78%
    10:00 +7°C° 0 mm 6 mps 714 mmHg 70%
    11:00 +8°C° 0 mm 7 mps 714 mmHg 63%
    12:00 +8°C° 0 mm 7 mps 714 mmHg 64%
    13:00 +9°C° 0 mm 7 mps 714 mmHg 64%
    14:00 +9°C° 0 mm 7 mps 714 mmHg 64%
    15:00 +8°C° 0.1 mm 7 mps 714 mmHg 69%
    16:00 +8°C° 0.1 mm 7 mps 714 mmHg 74%
    17:00 +7°C° 0.1 mm 6 mps 714 mmHg 79%
    18:00 +5°C° 0.1 mm 6 mps 714 mmHg 79%
    19:00 +6°C° 0.1 mm 5 mps 715 mmHg 80%
    20:00 +5°C° 0.1 mm 5 mps 715 mmHg 80%
    21:00 +3°C° 0 mm 5 mps 716 mmHg 78%
    22:00 +4°C° 0 mm 4 mps 716 mmHg 76%
    23:00 +3°C° 0 mm 4 mps 717 mmHg 73%

    6 April, Monday

    Time Temperature Precipitation Wind Pressure Humidity
    00:00 +3°C° 0 mm 4 mps 717 mmHg 74%
    01:00 +1°C° 0 mm 4 mps 718 mmHg 75%
    02:00 +1°C° 0 mm 3 mps 718 mmHg 76%
    03:00 +1°C° 0 mm 3 mps 718 mmHg 76%
    04:00 -1°C° 0 mm 4 mps 719 mmHg 77%
    05:00 -1°C° 0 mm 4 mps 719 mmHg 77%
    06:00 -1°C° 0 mm 4 mps 720 mmHg 72%
    07:00 0°C° 0 mm 4 mps 720 mmHg 66%
    08:00 0°C° 0 mm 4 mps 721 mmHg 61%
    09:00 +1°C° 0 mm 4 mps 721 mmHg 56%
    10:00 +3°C° 0 mm 5 mps 721 mmHg 51%
    11:00 +5°C° 0 mm 5 mps 722 mmHg 46%
    12:00 +5°C° 0 mm 5 mps 722 mmHg 45%
    13:00 +6°C° 0 mm 5 mps 722 mmHg 45%
    14:00 +7°C° 0 mm 5 mps 722 mmHg 44%
    15:00 +7°C° 0 mm 5 mps 722 mmHg 46%
    16:00 +6°C° 0 mm 5 mps 721 mmHg 48%
    17:00 +6°C° 0 mm 5 mps 721 mmHg 50%
    18:00 +4°C° 0 mm 4 mps 721 mmHg 55%
    19:00 +3°C° 0 mm 3 mps 722 mmHg 61%
    20:00 +2°C° 0 mm 2 mps 722 mmHg 66%
    21:00 +2°C° 0 mm 2 mps 722 mmHg 66%
    22:00 +1°C° 0 mm 2 mps 723 mmHg 66%
    23:00 +1°C° 0 mm 2 mps 723 mmHg 66%
    Show more